Regional Weather Roundup
Issued by NWS Newport/Morehead, NC

Current Version | Previous Version | Graphics & Text | Print | Product List | Glossary Off
Versions: 1 2 3 4 5 6 7 8 9 10 11 12 13 14 15 16 17 18 19 20 21 22 23 24 25 26 27 28 29 30 31 32 33 34 35 36 37 38 39 40 41 42 43 44 45 46 47 48 49 50

000
ASUS42 KMHX 280622
RWRMHX
WEATHER ROUNDUP FOR EASTERN NORTH CAROLINA
NATIONAL WEATHER SERVICE NEWPORT/MOREHEAD CITY NC
100 AM EST FRI NOV 28 2014

NOTE: "FAIR" INDICATES FEW OR NO CLOUDS BELOW 12,000 FEET
WITH NO SIGNIFICANT WEATHER AND/OR OBSTRUCTIONS TO VISIBILITY

NCZ015>017-031-032-045>047-102-103-280700-
NORTH COAST

CITY           SKY/WX    TMP DP  RH WIND       PRES   REMARKS
EDENTON        CLOUDY    40  36  85 NW6       30.20R
ELIZABETH CITY CLOUDY    43  35  73 NW12      30.18F
KITTY HAWK     CLOUDY    41  33  73 N9G17     30.14F
MANTEO         CLOUDY    41  32  70 NW13      30.17R

$$

NCZ045>047-081-094-103-104-280700-
CENTRAL COAST

CITY           SKY/WX    TMP DP  RH WIND       PRES   REMARKS
FRISCO         PTCLDY    42  34  73 NW9G22    30.16S
SWANQUARTER      N/A     39 N/A N/A NW8       30.15S

$$

NCZ095-097-098-100-101-280700-
SOUTHERN COAST

CITY           SKY/WX    TMP DP  RH WIND       PRES   REMARKS
BEAUFORT       CLEAR     41  31  67 NW17      30.21R
CEDAR ISLAND     N/A     43 N/A N/A NW18G25   30.21S
JACKSONVILLE   CLEAR     37  31  78 NW9       30.23R
PINEY ISLAND   CLEAR     44  36  73 NW14      30.19S
WILMINGTON     CLEAR     36  31  82 NW6       30.24S


$$

NCZ011>013-027>030-043-044-078>080-089-090>093-098-280700-
COASTAL PLAIN

CITY           SKY/WX    TMP DP  RH WIND       PRES   REMARKS
AHOSKIE        CLOUDY    35  28  77 NW3       30.22S
CLINTON        CLEAR     36  31  83 CALM      30.26S
ELIZABETHTOWN  CLEAR     37  29  72 NW5       30.25F
GOLDSBORO      CLEAR     37  28  69 NW7       30.22F
GREENVILLE     CLEAR     36  28  75 CALM      30.24R
HAVELOCK       CLEAR     41  27  57 NW20G26   30.22S
KENANSVILLE    CLEAR     36  28  75 CALM      30.26R
KINSTON        CLEAR     36  27  71 NW5       30.24S
NEW BERN       CLEAR     39  28  64 NW8       30.23R
RICHLANDS      CLEAR     36  27  69 CALM      30.24S
ROCKY MOUNT    CLEAR     35  24  64 NW7       30.24S
WASHINGTON     CLEAR     35  27  72 NW5       30.22S
WHITEVILLE     CLEAR     36  31  82 CALM      30.26S

$$

AMZ130-135-150-152-154-156-158-170-250-252-270-ANZ085-086-088-633-658-670-280700-
MARINE OBSERVATIONS

STATION/POSITION TIME  TEMP    WIND        PRES    WAVE   SWELL
                       AIR SEA DIR/SP/G            HT/PER HT/PER
                 (UTC) (F)     (DEG/KT/KT) (MB)    (FT/S) (FT/S)
CHESAPEAKE LIGHT 0600   42     340/ 25/ 28 1021.3
64 E VA BEACH    0600   47 65  340/ 21/ 29 1018.9    7/ 6   2/14
DUCK             0600   43 53  330/ 19/ 23 1020.1
2 E DUCK         0600      54                N/A     5/ 6   2/14
10 NE DUCK       0600      57                N/A     6/ 6   2/14
OREGON INLET     0600   42 55  320/ 13/ 18 1020.9
13E OREGON INLT  0600      60                N/A     7/ 6   2/14
HATTERAS CG      0600   44 57  330/ 20/ 24 1021.6
DIAMOND BUOY     0600   48     330/ 21/ 25 1020.2    7/ 5   2/ 9
17 S OCRACOKE    NOT AVBL
CAPE LOOKOUT     0600   43     340/ 20/ 24 1022.3
BEAUFORT LAB     0600   41 56  330/ 11/ 16 1021.8
30 SE NEW RIVER  0600   47 66  340/ 23/ 29 1022.5    6/ 5   2/14
5 SE WRIGHTSVLE  0600   41 58  350/ 16/ 19 1023.5
225 S CAPE HAT   0506   60 73  320/ 25/ 29 1018.2   12/ 9   2/13
41 SE CHARLESTON 0600   53 72  340/ 19/ 23 1023.1    5/ 6   2/ 9

$$



USA.gov is the U.S. government's official web portal to all federal, state and local government web resources and services.